Content
SEND FEEDBACK

Daily
Averages
Monthly
Summary
United States of America

CLARK, SOUTH DAKOTA


Home > North America > United States > South Dakota
Elevation: 1804 feet     Latitude: 44 53N     Longitude: 097 44W

WEATHER
 
SELECT A DAY
Number of Records: 213,372;   Date Range: 1/1/95 - 7/20/14
 
SHARE

PRINT THIS DATA

[ ← Previous Day ]
WEATHER ALMANAC - JANUARY 31, 2013
[ Next Day → ]
[ °C ]   °F
Weather ElementAverageHighLow
Temperature-12.6 °F-9.9 °F (1:53 pm)-16.1 °F (11:53 pm)
Dewpoint-18.4 °F-16.1 °F (12:53 am)-20.2 °F (8:37 am)
Humidity75.7 %84 % (7:03 am)68 % (3:53 pm)
Barometer30.19 in30.43 in (9:53 pm)29.89 in (2:11 am)
Wind Speed17.9 mph26.5 mph (10:00 am)
Wind Gust33.4 mph (9:53 am)
Weather ElementAverage
Visibility7 mi
Wind DirectionNW (313.9 °)

Weather ElementTotal
Precipitation---
Heating Degree Days78 (Base 65)
Averaged from 36 records on January 31, 2013
WEATHER CONDITIONS BREAKOUT
WIND DIRECTION BREAKOUT
WEATHER BY HOUR - JANUARY 31, 2013
[ °C ]   °F
Local TimeTemperatureDewpointHumidityBarometerVisibilityWind DirectionWind SpeedGust SpeedPrecipitationEventsConditions
12:53 AM-11.0 °F-16.1 °F78 %30.01 in10.0 miNNW (330°)16.1 mphOvercast
1:53 AM-11.0 °F-17.0 °F75 %30.03 in10.0 miNW (310°)18.4 mphOvercast
2:11 AM-11.2 °F-16.6 °F77 %29.89 in7.0 miNNW (330°)18.4 mph26.5 mphOvercast
2:53 AM-11.9 °F-17.0 °F78 %30.05 in8.0 miNW (320°)17.3 mphOvercast
3:53 AM-13.0 °F-18.0 °F78 %30.08 in8.0 miNNW (330°)16.1 mphOvercast
4:02 AM-13.0 °F-18.4 °F77 %29.92 in8.0 miNNW (330°)15.0 mphOvercast
4:13 AM-13.0 °F-18.4 °F77 %29.93 in7.0 miNNW (330°)17.3 mphOvercast
4:39 AM-13.0 °F-18.4 °F77 %29.94 in6.0 miNNW (330°)18.4 mphHaze
4:53 AM-13.0 °F-18.0 °F78 %30.10 in6.0 miNNW (330°)18.4 mphHaze
5:41 AM-13.0 °F-18.4 °F77 %29.97 in4.0 miNW (320°)19.6 mphHaze
5:53 AM-13.0 °F-18.0 °F78 %30.13 in4.0 miNW (320°)18.4 mphHaze
6:53 AM-13.0 °F-18.9 °F75 %30.18 in5.0 miNW (320°)20.7 mphHaze
7:03 AM-14.8 °F-18.4 °F84 %30.02 in3.0 miNW (320°)23.0 mph29.9 mphHaze
7:26 AM-14.8 °F-18.4 °F84 %30.03 in5.0 miNW (310°)18.4 mph24.2 mphHaze
7:53 AM-14.1 °F-20.0 °F75 %30.22 in5.0 miNW (310°)20.7 mph29.9 mphHaze
8:37 AM-14.8 °F-20.2 °F77 %30.08 in4.0 miNW (320°)21.9 mph29.9 mphHaze
8:53 AM-14.1 °F-20.0 °F75 %30.25 in7.0 miNW (320°)20.7 mph27.6 mphOvercast
9:40 AM-14.8 °F-20.2 °F77 %30.11 in2.0 miNW (320°)24.2 mph29.9 mphHaze
9:53 AM-14.1 °F-20.0 °F75 %30.30 in3.0 miNW (320°)24.2 mph33.4 mphHaze
10:00 AM-14.8 °F-20.2 °F77 %30.13 in2.5 miNW (320°)26.5 mph31.1 mphHaze
10:43 AM-13.0 °F-18.4 °F77 %30.14 in4.0 miNW (320°)24.2 mph32.2 mphHaze
10:53 AM-13.0 °F-18.9 °F75 %30.33 in5.0 miNW (320°)24.2 mph32.2 mphHaze
11:53 AM-11.9 °F-18.0 °F74 %30.34 in5.0 miNW (320°)20.7 mphHaze
12:53 PM-11.0 °F-18.0 °F71 %30.36 in7.0 miNW (320°)23.0 mphOvercast
1:53 PM-9.9 °F-17.0 °F71 %30.37 in8.0 miNW (310°)18.4 mphOvercast
2:53 PM-9.9 °F-17.0 °F71 %30.38 in9.0 miNW (310°)20.7 mph26.5 mphOvercast
3:53 PM-9.9 °F-18.0 °F68 %30.40 in10.0 miWNW (300°)18.4 mph25.3 mphOvercast
4:53 PM-11.0 °F-18.0 °F71 %30.39 in10.0 miNW (310°)15.0 mphMostly Cloudy
5:23 PM-11.2 °F-18.4 °F70 %30.22 in10.0 miWNW (300°)13.8 mphMostly Cloudy
5:42 PM-11.2 °F-18.4 °F70 %30.22 in10.0 miNW (310°)16.1 mph25.3 mphScattered Clouds
5:53 PM-11.9 °F-18.0 °F74 %30.40 in10.0 miNW (310°)16.1 mphPartly Cloudy
6:53 PM-11.9 °F-18.0 °F74 %30.41 in10.0 miWNW (300°)11.5 mphClear
7:53 PM-11.9 °F-18.0 °F74 %30.42 in10.0 miWNW (290°)9.2 mphClear
9:53 PM-13.0 °F-18.0 °F78 %30.43 in10.0 miWNW (290°)6.9 mphClear
10:53 PM-13.0 °F-18.9 °F75 %30.41 in10.0 miWNW (300°)5.8 mphClear
11:53 PM-16.1 °F-20.0 °F82 %30.40 in10.0 miWSW (250°)5.8 mphClear
Hourly data recorded from KATY, located miles away from Clark, South Dakota







STORIES FROM OUR PARTNERS